Home > Weather > Dieppe > Past weeks

Flag for Canada Past Weather in Dieppe, New Brunswick, Canada — Yesterday and Last 2 Weeks

Now
68 °F

Passing clouds.


Feels Like: 68 °F
Forecast: 62 / 81 °F
Wind: 7 mph from North

Location: Moncton

Current Time: Jul 30, 2016 at 10:13:26 AM

Latest Report: Jul 30, 2016 at 9:00 AM


Visibility: 15 mi

Pressure: 29.93 "Hg

Humidity: 83%

Dew Point: 63 °F

Location of DieppeLocation

Past Weather in Dieppe — Graph

°F

Dieppe Temperature Yesterday

Maximum temperature yesterday: 77 °F (at 3:00 PM)
Minimum temperature yesterday: 64 °F (at 4:00 AM)
Average temperature yesterday: 69 °F

High & Low Weather Summary for the Past Weeks

 TemperatureHumidityPressure
High86 °F (Jul 28, 2:00 PM)100% (Jul 18, 12:00 AM)30.15 "Hg (Jul 18, 12:00 AM)
Low52 °F (Jul 20, 5:00 AM)44% (Jul 19, 6:00 PM)29.59 "Hg (Jul 23, 1:00 AM)
Average70 °F79%29.85 "Hg
* Reported Jul 15 9:00 AM — Jul 30 9:00 AM, Dieppe, Weather by CustomWeather, © 2016

Note: Actual official high and low records may vary slightly from our data, if they occured in-between our weather recording intervals... More about our weather records

Advertising

Dieppe Weather History for the Previous 24 Hours

Scroll right to see more
 ConditionsComfort  
Time TempWeatherWind HumidityBarometerVisibility
9:00 AM
Sat, Jul 30
68 °FPassing clouds.7 mph83%29.93 "Hg15 mi
8:00 AM64 °FPassing clouds.7 mph88%29.91 "Hg15 mi
7:00 AM63 °FPassing clouds.7 mph94%29.90 "Hg15 mi
6:00 AM64 °FLow clouds.7 mph94%29.88 "Hg12 mi
5:00 AM64 °FFog.6 mph100%29.87 "Hg0 mi
4:00 AM66 °FFog.7 mph94%29.86 "Hg0 mi
3:00 AM64 °FFog.7 mph100%29.86 "Hg0 mi
2:52 AM64 °FFog.6 mph94%29.86 "Hg3 mi
2:04 AM64 °FPassing clouds.6 mph94%29.87 "Hg8 mi
2:00 AM64 °FPassing clouds.6 mph94%29.87 "Hg15 mi
1:00 AM64 °FPassing clouds.No wind100%29.88 "Hg15 mi
12:00 AM64 °FPassing clouds.2 mph94%29.87 "Hg15 mi
11:00 PM
Fri, Jul 29
66 °FOvercast.No wind94%29.87 "Hg15 mi
10:00 PM68 °FPartly cloudy.5 mph94%29.88 "Hg15 mi
9:00 PM68 °FPartly sunny.5 mph94%29.87 "Hg15 mi
8:00 PM72 °FPartly sunny.3 mph83%29.87 "Hg15 mi
7:00 PM72 °FPartly sunny.6 mph88%29.86 "Hg15 mi
6:00 PM73 °FMostly cloudy.8 mph83%29.87 "Hg15 mi
5:00 PM75 °FPartly sunny.7 mph78%29.87 "Hg15 mi
4:00 PM77 °FPartly sunny.3 mph74%29.87 "Hg15 mi
3:00 PM77 °FPartly sunny.No wind74%29.88 "Hg15 mi
2:00 PM75 °FBroken clouds.5 mph78%29.89 "Hg15 mi
1:00 PM73 °FPartly sunny.2 mph78%29.89 "Hg15 mi
12:00 PM72 °FMostly cloudy.No wind83%29.90 "Hg15 mi
11:00 AM70 °FLow clouds.6 mph88%29.91 "Hg15 mi
10:00 AM68 °FMostly cloudy.6 mph94%29.90 "Hg15 mi
Weather by CustomWeather, © 2016

See weather overviewHow to use our weather pages